Flag for Germany Weather past 2 weeks in Erding, Bavaria, Germany

Now
75 °F

Mild.


Feels Like: 77 °F
Forecast: 60 / 69 °F
Wind: 8 mph from Southeast

Location: Erding Airport

Current Time: Jul 28, 2014 at 7:58:21 PM

Latest Report: Jul 28, 2014 at 7:20 PM


Visibility: 2 mi

Pressure: 29.77 "Hg

Humidity: 65%

Dew point: 63 °F

Location of ErdingLocation

Historic Weather in Erding — Graph

°F

Erding temperature yesterday

Maximum temperature yesterday: 73 °F (at 4:20 PM)
Minimum temperature yesterday: 63 °F (at 1:20 AM)
Average temperature yesterday: 66 °F

Past Weeks' High & Low Weather Summary

 TemperatureHumidityPressure
High81 °F (Jul 16, 4:20 PM)100% (Jul 16, 4:20 AM)30.21 "Hg (Jul 16, 4:20 AM)
Low52 °F (Jul 24, 6:20 AM)37% (Jul 17, 5:20 PM)29.80 "Hg (Jul 28, 5:20 PM)
Average67 °F78%30.00 "Hg
* Reported Jul 13 6:20 PM — Jul 28 6:20 PM, Erding, Weather by CustomWeather, © 2014

Note: Actual official high and low records may vary slightly from our data, if they occured in-between our weather recording intervals... More about our weather records

Advertising

Erding weather history for previous 24 hours

 ConditionsComfort  
Time TempWeatherWind HumidityBarometerVisibility
6:20 PM
Jul 28
77 °FWarm.10 mph57%29.80 "Hg2 mi
5:20 PM77 °FWarm.9 mph57%29.80 "Hg2 mi
4:20 PM77 °FPartly sunny.8 mph61%29.83 "HgN/A
3:20 PM75 °FPartly sunny.6 mph65%29.86 "HgN/A
2:20 PM75 °FPartly sunny.5 mph61%29.89 "HgN/A
1:20 PM73 °FPartly sunny.3 mph69%29.89 "HgN/A
12:20 PM72 °FPartly sunny.5 mph73%29.92 "HgN/A
11:20 AM70 °FBroken clouds.3 mph78%29.92 "HgN/A
10:55 AM70 °FPartly sunny.3 mph83%29.95 "HgN/A
10:20 AM68 °FPartly sunny.3 mph83%29.95 "HgN/A
9:20 AM64 °FFog.3 mph94%29.95 "Hg3 mi
8:20 AM63 °FFog.3 mph94%29.98 "Hg2 mi
7:20 AM63 °FFog.3 mph94%29.98 "Hg3 mi
6:20 AM61 °FCool.1 mph100%29.98 "Hg2 mi
5:20 AM61 °FCool.2 mph100%29.98 "Hg2 mi
4:20 AM59 °FCool.1 mph100%29.98 "Hg2 mi
3:20 AM63 °FMild.3 mph88%29.98 "Hg2 mi
2:20 AM63 °FMild.5 mph94%29.98 "Hg2 mi
1:20 AM63 °FMild.6 mph94%30.01 "Hg2 mi
12:20 AM63 °FMild.3 mph94%30.01 "Hg2 mi
11:20 PM
Jul 27
63 °FMild.5 mph94%30.01 "Hg2 mi
10:20 PM63 °FMild.6 mph94%30.01 "Hg2 mi
9:20 PM64 °FMild.6 mph94%30.01 "Hg2 mi
8:20 PM66 °FMild.2 mph88%30.01 "Hg2 mi
7:20 PM68 °FMild.10 mph83%29.98 "Hg2 mi
Weather by CustomWeather, © 2014

See weather overviewHow to use our weather pages